ROBUSTA-1B

Last updated on Tue Aug 09 2022 00:03:41 GMT+0000 (Coordinated Universal Time)

1 42792U 17036AD 22220.35171910 .00014422 00000+0 47536-3 0 9996 2 42792 97.1965 262.4100 0010449 131.6050 228.6088 15.31503853285061
UTC large
Height (km)
Speed (km/s)
/
Latitude / Longitude
Inclination (degrees)
Orbital Period (minutes)
Azimuth
Elevation
Range (km)
Doppler Factor

Next 0 passes for location: London (51.5072 / 0.1276)

Sorry there are no passes over London.